FW4702 Weather Reports


Display with metric or nautical units.
time (UTC)temp
F
wind
direction
speed
MPH
gust
MPH
rain 1hr
in
rain 24hr
in
rain mn
in
humidity
%
barometer
mb
20260904154602 88 138 0.0 2.0 0.00 0.00 0.00 73 1017.9
20260904154055 88 0 0.0 2.0 0.00 0.00 0.00 73 1018.0
20260904153555 88 185 0.0 2.0 0.00 0.00 0.00 74 1018.0
20260904153113 88 126 0.0 3.0 0.00 0.00 0.00 75 1017.9
20260904152555 88 0 0.0 3.0 0.00 0.00 0.00 74 1017.9
20260904152055 88 59 1.0 3.0 0.00 0.00 0.00 74 1017.9
20260904151600 87 67 0.0 3.0 0.00 0.00 0.00 77 1017.9
20260904151055 87 0 0.0 2.0 0.00 0.00 0.00 75 1017.9
20260904150556 87 0 0.0 2.0 0.00 0.00 0.00 75 1017.8
20260904145553 86 58 0.0 2.0 0.00 0.00 0.00 77 1017.8
20260904145055 85 0 0.0 2.0 0.00 0.00 0.00 78 1017.8
20260904144621 86 0 0.0 2.0 0.00 0.00 0.00 77 1017.8
20260904144055 86 76 0.0 2.0 0.00 0.00 0.00 75 1017.7
20260904143555 85 0 0.0 3.0 0.00 0.00 0.00 76 1017.7
20260904143104 85 60 0.0 3.0 0.00 0.00 0.00 77 1017.7
20260904142555 85 0 0.0 2.0 0.00 0.00 0.00 77 1017.7
20260904142055 85 149 0.0 2.0 0.00 0.00 0.00 78 1017.7
20260904141605 85 0 0.0 2.0 0.00 0.00 0.00 78 1017.6
20260904141055 84 67 0.0 1.0 0.00 0.00 0.00 81 1017.7
20260904140556 83 0 0.0 2.0 0.00 0.00 0.00 82 1017.7
20260904140100 83 0 0.0 2.0 0.00 0.00 0.00 83 1017.7
20260904135557 83 0 0.0 0.0 0.00 0.00 0.00 84 1017.7
20260904135058 82 0 0.0 0.0 0.00 0.00 0.00 86 1017.7
20260904134608 82 0 0.0 0.0 0.00 0.00 0.00 85 1017.7
20260904134057 82 0 0.0 0.0 0.00 0.00 0.00 86 1017.7
20260904133557 81 0 0.0 0.0 0.00 0.00 0.00 86 1017.6
20260904133106 81 0 0.0 0.0 0.00 0.00 0.00 86 1017.6
20260904132558 81 0 0.0 0.0 0.00 0.00 0.00 87 1017.7
20260904132059 80 0 0.0 0.0 0.00 0.00 0.00 90 1017.7
20260904131604 80 0 0.0 0.0 0.00 0.00 0.00 91 1017.7
20260904131058 79 0 0.0 0.0 0.00 0.00 0.00 91 1017.6
20260904130557 79 0 0.0 0.0 0.00 0.00 0.00 91 1017.6
20260904130059 78 0 0.0 0.0 0.00 0.00 0.00 92 1017.6
20260904125557 78 0 0.0 0.0 0.00 0.00 0.00 93 1017.6
20260904125101 77 0 0.0 0.0 0.00 0.00 0.00 94 1017.6
20260904124615 77 0 0.0 0.0 0.00 0.00 0.00 95 1017.6
20260904124101 76 0 0.0 0.0 0.00 0.00 0.00 96 1017.5
20260904123557 75 0 0.0 0.0 0.00 0.00 0.00 96 1017.5
20260904123102 75 0 0.0 0.0 0.00 0.00 0.00 96 1017.5
20260904122557 75 0 0.0 0.0 0.00 0.00 0.00 96 1017.4
20260904122058 74 0 0.0 0.0 0.00 0.00 0.00 96 1017.4
20260904121604 74 0 0.0 0.0 0.00 0.00 0.00 96 1017.4
20260904121100 74 0 0.0 0.0 0.00 0.00 0.00 97 1017.4
20260904120556 74 0 0.0 0.0 0.00 0.00 0.00 96 1017.4
20260904120132 74 0 0.0 0.0 0.00 0.00 0.00 97 1017.2
20260904115558 73 0 0.0 0.0 0.00 0.00 0.00 96 1017.3
20260904115058 74 0 0.0 0.0 0.00 0.00 0.00 96 1017.3
20260904114608 74 0 0.0 0.0 0.00 0.00 0.00 97 1017.2
20260904114058 73 0 0.0 0.0 0.00 0.00 0.00 97 1017.1
20260904113559 73 0 0.0 0.0 0.00 0.00 0.00 97 1017.1
20260904113107 73 0 0.0 0.0 0.00 0.00 0.00 97 1017.0
20260904112600 73 0 0.0 0.0 0.00 0.00 0.00 97 1017.1
20260904112101 73 0 0.0 0.0 0.00 0.00 0.00 96 1017.1
20260904111613 73 0 0.0 0.0 0.00 0.00 0.00 96 1017.0
20260904111057 73 0 0.0 0.0 0.00 0.00 0.00 96 1017.0
20260904110600 73 0 0.0 0.0 0.00 0.00 0.00 96 1017.0
20260904105557 73 0 0.0 0.0 0.00 0.00 0.00 96 1016.6
20260904105058 73 0 0.0 0.0 0.00 0.00 0.00 96 1016.6
20260904104623 73 0 0.0 0.0 0.00 0.00 0.00 96 1016.6
20260904104059 74 0 0.0 0.0 0.00 0.00 0.00 96 1016.5
20260904103559 74 0 0.0 0.0 0.00 0.00 0.00 96 1016.4
20260904103106 74 0 0.0 0.0 0.00 0.00 0.00 96 1016.4
20260904102559 74 0 0.0 0.0 0.00 0.00 0.00 96 1016.4
20260904102057 74 0 0.0 0.0 0.00 0.00 0.00 96 1016.5
20260904101603 74 0 0.0 0.0 0.00 0.00 0.00 96 1016.5
20260904101057 74 0 0.0 0.0 0.00 0.00 0.00 96 1016.4
20260904100557 74 0 0.0 0.0 0.00 0.00 0.00 96 1016.4
20260904100103 74 0 0.0 0.0 0.00 0.00 0.00 96 1016.3
20260904095557 74 0 0.0 0.0 0.00 0.00 0.00 96 1016.3
20260904095059 74 0 0.0 0.0 0.00 0.00 0.00 96 1016.2
20260904094615 74 0 0.0 0.0 0.00 0.00 0.00 96 1016.1
20260904094057 74 0 0.0 0.0 0.00 0.00 0.00 96 1016.1
20260904093559 74 0 0.0 0.0 0.00 0.00 0.00 96 1016.1
20260904093110 74 0 0.0 0.0 0.00 0.00 0.00 96 1016.1
20260904092558 74 0 0.0 0.0 0.00 0.00 0.00 96 1016.1
20260904092055 74 0 0.0 0.0 0.00 0.00 0.00 96 1016.1
20260904091601 74 0 0.0 0.0 0.00 0.00 0.00 95 1016.1
20260904091051 74 0 0.0 0.0 0.00 0.00 0.00 96 1015.9
20260904090553 74 0 0.0 0.0 0.00 0.00 0.00 96 1016.0
20260904090107 74 0 0.0 0.0 0.00 0.00 0.00 96 1016.0
20260904085553 74 0 0.0 0.0 0.00 0.00 0.00 95 1015.9
20260904085055 74 0 0.0 0.0 0.00 0.00 0.00 96 1015.9
20260904084607 74 0 0.0 0.0 0.00 0.00 0.00 96 1015.9
20260904084055 74 0 0.0 0.0 0.00 0.00 0.00 95 1016.0
20260904083600 74 0 0.0 0.0 0.00 0.00 0.00 95 1015.9
20260904083101 74 0 0.0 0.0 0.00 0.00 0.00 95 1016.0
20260904082555 74 0 0.0 0.0 0.00 0.00 0.00 95 1016.0
20260904082053 74 0 0.0 0.0 0.00 0.00 0.00 95 1016.0
20260904081642 74 0 0.0 0.0 0.00 0.00 0.00 95 1016.0
20260904081057 74 0 0.0 0.0 0.00 0.00 0.00 95 1016.0
20260904080555 75 0 0.0 0.0 0.00 0.00 0.00 95 1016.0
20260904080104 75 0 0.0 0.0 0.00 0.00 0.00 95 1015.9
20260904075555 75 0 0.0 0.0 0.00 0.00 0.00 95 1015.8
20260904075056 74 0 0.0 0.0 0.00 0.00 0.00 94 1015.8
20260904074608 75 0 0.0 0.0 0.00 0.00 0.00 95 1015.8
20260904074055 75 0 0.0 0.0 0.00 0.00 0.00 94 1015.8
20260904073555 75 0 0.0 0.0 0.00 0.00 0.00 95 1015.8
20260904073104 75 0 0.0 0.0 0.00 0.00 0.00 95 1015.8
20260904072555 75 0 0.0 0.0 0.00 0.00 0.00 94 1015.8
20260904072056 75 0 0.0 0.0 0.00 0.00 0.00 94 1015.8
20260904071606 75 0 0.0 0.0 0.00 0.00 0.00 94 1015.8
20260904071055 75 0 0.0 0.0 0.00 0.00 0.00 94 1015.7
20260904070556 75 0 0.0 0.0 0.00 0.00 0.00 94 1015.7
20260904070124 75 0 0.0 0.0 0.00 0.00 0.00 94 1016.0
20260904065554 75 0 0.0 0.0 0.00 0.00 0.00 94 1016.0
20260904065053 75 0 0.0 0.0 0.00 0.00 0.00 94 1016.1
20260904064600 75 0 0.0 0.0 0.00 0.00 0.00 94 1016.1
20260904064054 75 0 0.0 0.0 0.00 0.00 0.00 94 1016.0
20260904063554 75 0 0.0 0.0 0.00 0.00 0.00 94 1016.0
20260904063059 75 0 0.0 0.0 0.00 0.00 0.00 94 1015.9
20260904062555 75 0 0.0 0.0 0.00 0.00 0.00 94 1016.0
20260904062055 75 0 0.0 0.0 0.00 0.00 0.00 94 1016.0
20260904061615 75 0 0.0 0.0 0.00 0.00 0.00 93 1016.0
20260904061055 76 0 0.0 0.0 0.00 0.00 0.00 93 1016.0
20260904060555 76 0 0.0 0.0 0.00 0.00 0.00 92 1016.1
20260904060106 76 0 0.0 0.0 0.00 0.00 0.00 92 1016.1
20260904055551 76 0 0.0 0.0 0.00 0.00 0.00 92 1016.2
20260904055056 76 0 0.0 0.0 0.00 0.00 0.00 92 1016.2
20260904054608 76 0 0.0 0.0 0.00 0.00 0.00 93 1016.2
20260904054055 76 0 0.0 0.0 0.00 0.00 0.00 93 1016.2
20260904053554 76 0 0.0 0.0 0.00 0.00 0.00 93 1016.3
20260904053107 76 0 0.0 0.0 0.00 0.00 0.00 93 1016.3
20260904052556 76 0 0.0 0.0 0.00 0.00 0.00 93 1016.3
20260904052056 76 0 0.0 0.0 0.00 0.00 0.00 93 1016.3
20260904051608 76 0 0.0 0.0 0.00 0.00 0.00 93 1016.2
20260904051053 76 0 0.0 0.0 0.00 0.00 0.00 93 1016.2
20260904050554 76 0 0.0 0.0 0.00 0.00 0.00 93 1016.2
20260904050125 76 0 0.0 0.0 0.00 0.00 0.00 93 1016.3
20260904045553 77 0 0.0 0.0 0.00 0.00 0.00 92 1016.3
20260904045053 77 0 0.0 0.0 0.00 0.00 0.00 92 1016.3
20260904044603 77 0 0.0 0.0 0.00 0.00 0.00 92 1016.4
20260904044058 77 0 0.0 0.0 0.00 0.00 0.00 92 1016.3
20260904043557 77 0 0.0 0.0 0.00 0.00 0.00 92 1016.3
20260904043129 77 0 0.0 0.0 0.00 0.00 0.00 92 1016.4
20260904042553 77 0 0.0 0.0 0.00 0.00 0.00 91 1016.4
20260904042057 77 0 0.0 0.0 0.00 0.00 0.00 91 1016.5
20260904041609 77 0 0.0 0.0 0.00 0.00 0.00 91 1016.4
20260904041055 77 0 0.0 0.0 0.00 0.00 0.00 91 1016.4
20260904040555 77 0 0.0 0.0 0.00 0.00 0.00 91 1016.4
20260904040111 77 0 0.0 0.0 0.00 0.00 0.00 91 1016.4
20260904035556 77 0 0.0 0.0 0.00 0.00 0.00 91 1016.5
20260904035055 78 0 0.0 0.0 0.00 0.00 0.00 90 1016.5
20260904034603 78 0 0.0 0.0 0.00 0.00 0.00 90 1016.6
20260904034055 77 0 0.0 0.0 0.00 0.00 0.00 90 1016.7
20260904033554 78 0 0.0 0.0 0.00 0.00 0.00 91 1016.7
20260904033101 78 0 0.0 0.0 0.00 0.00 0.00 90 1016.8
20260904032555 77 0 0.0 0.0 0.00 0.00 0.00 90 1016.8
20260904032055 78 0 0.0 0.0 0.00 0.00 0.00 92 1016.8
20260904031606 78 0 0.0 0.0 0.00 0.00 0.00 91 1016.9
20260904031057 78 0 0.0 0.0 0.00 0.00 0.00 91 1016.8
20260904030557 78 0 0.0 0.0 0.00 0.00 0.00 90 1016.8
20260904030105 78 0 0.0 0.0 0.00 0.00 0.00 90 1016.8
20260904025557 79 0 0.0 0.0 0.00 0.00 0.00 90 1016.8
20260904025057 79 0 0.0 0.0 0.00 0.00 0.00 89 1016.8
20260904024605 79 0 0.0 0.0 0.00 0.00 0.00 90 1016.8
20260904024101 79 0 0.0 0.0 0.00 0.00 0.00 89 1016.8
20260904023558 79 0 0.0 0.0 0.00 0.00 0.00 89 1016.7
20260904023105 79 0 0.0 0.0 0.00 0.00 0.00 89 1016.8
20260904022558 79 0 0.0 0.0 0.00 0.00 0.00 88 1016.6
20260904022056 79 0 0.0 0.0 0.00 0.00 0.00 90 1016.6
20260904021605 78 0 0.0 0.0 0.00 0.00 0.00 90 1016.5
20260904021058 79 0 0.0 0.0 0.00 0.00 0.00 90 1016.5
20260904020558 79 0 0.0 0.0 0.00 0.00 0.00 89 1016.5
20260904020101 80 0 0.0 0.0 0.00 0.00 0.00 88 1016.6
20260904015558 79 0 0.0 0.0 0.00 0.00 0.00 88 1016.4
20260904015057 80 0 0.0 0.0 0.00 0.00 0.00 88 1016.4
20260904014644 79 0 0.0 0.0 0.00 0.00 0.00 89 1016.4
20260904014057 79 0 0.0 0.0 0.00 0.00 0.00 89 1016.3
20260904013559 80 0 0.0 0.0 0.00 0.00 0.00 88 1016.3
20260904013103 80 0 0.0 0.0 0.00 0.00 0.00 88 1016.2
20260904012559 80 0 0.0 0.0 0.00 0.00 0.00 87 1016.2
20260904012059 80 0 0.0 0.0 0.00 0.00 0.00 87 1016.2
20260904011608 80 0 0.0 0.0 0.00 0.00 0.00 88 1016.1
20260904011101 80 0 0.0 0.0 0.00 0.00 0.00 88 1016.1
20260904010558 81 0 0.0 1.0 0.00 0.00 0.00 87 1016.2
20260904010101 81 0 0.0 1.0 0.00 0.00 0.00 85 1016.1
20260904005557 81 0 0.0 1.0 0.00 0.00 0.00 85 1016.0
20260904005057 80 0 0.0 1.0 0.00 0.00 0.00 86 1015.9
20260904004608 80 0 0.0 1.0 0.00 0.00 0.00 86 1015.8
20260904004058 81 0 0.0 0.0 0.00 0.00 0.00 85 1015.7
20260904003558 81 0 0.0 0.0 0.00 0.00 0.00 84 1015.6
20260904003113 81 0 0.0 0.0 0.00 0.00 0.00 85 1015.7
20260904002558 82 0 0.0 0.0 0.00 0.00 0.00 85 1015.7
20260904002100 82 0 0.0 0.0 0.00 0.00 0.00 85 1015.7
20260904001602 82 0 0.0 0.0 0.00 0.00 0.00 84 1015.7
20260904001057 82 0 0.0 0.0 0.00 0.00 0.00 83 1015.6
20260904000559 83 0 0.0 0.0 0.00 0.00 0.00 84 1015.7
20260904000141 84 0 0.0 0.0 0.00 0.00 0.00 82 1015.6
20260903235556 84 0 0.0 0.0 0.00 0.00 0.00 79 1015.5
20260903235057 83 0 0.0 0.0 0.00 0.00 0.00 84 1015.5
20260903234606 84 0 0.0 0.0 0.00 0.00 0.00 84 1015.6
20260903234057 84 0 0.0 0.0 0.00 0.00 0.00 83 1015.4
20260903233559 85 0 0.0 0.0 0.00 0.00 0.00 82 1015.4
20260903233105 85 0 0.0 1.0 0.00 0.00 0.00 80 1015.5
20260903232557 85 0 0.0 1.0 0.00 0.00 0.00 82 1015.5
20260903232100 86 0 0.0 1.0 0.00 0.00 0.00 80 1015.4
20260903231623 86 0 0.0 1.0 0.00 0.00 0.00 80 1015.5
20260903231057 86 0 0.0 1.0 0.00 0.00 0.00 76 1015.4
20260903230555 86 0 0.0 1.0 0.00 0.00 0.00 79 1015.4
20260903230111 87 0 0.0 1.0 0.00 0.00 0.00 77 1015.4
20260903225601 87 0 0.0 0.0 0.00 0.00 0.00 75 1015.5
20260903225057 88 0 0.0 0.0 0.00 0.00 0.00 71 1015.5
20260903224600 88 0 0.0 0.0 0.00 0.00 0.00 76 1015.3
20260903224100 88 0 0.0 0.0 0.00 0.00 0.00 75 1015.4
20260903223557 89 0 0.0 0.0 0.00 0.00 0.00 70 1015.4
20260903223112 89 0 0.0 0.0 0.00 0.00 0.00 71 1015.3
20260903222559 89 0 0.0 1.0 0.00 0.00 0.00 69 1015.2
20260903222058 90 0 0.0 3.0 0.00 0.00 0.00 68 1015.2
20260903221604 91 67 0.0 3.0 0.00 0.00 0.00 63 1015.1
20260903221058 93 0 0.0 3.0 0.00 0.00 0.00 54 1015.2
20260903220557 93 0 0.0 4.0 0.00 0.00 0.00 54 1015.1
20260903220114 93 0 0.0 8.0 0.00 0.00 0.00 53 1015.1
20260903215601 93 0 1.0 8.0 0.00 0.00 0.00 52 1015.0
20260903215057 93 53 3.0 8.0 0.00 0.00 0.00 52 1015.0
20260903214604 93 46 2.0 7.0 0.00 0.00 0.00 52 1015.0
20260903214057 93 74 2.0 7.0 0.00 0.00 0.00 52 1015.1
20260903213558 94 64 3.0 8.0 0.00 0.00 0.00 51 1015.1
20260903213108 94 60 3.0 8.0 0.00 0.00 0.00 53 1015.2
20260903212557 94 0 0.0 2.0 0.00 0.00 0.00 54 1015.3
20260903212058 93 0 1.0 2.0 0.00 0.00 0.00 61 1015.3
20260903211604 94 173 0.0 2.0 0.00 0.00 0.00 57 1015.3
20260903211057 93 0 0.0 2.0 0.00 0.00 0.00 55 1015.4
20260903210557 93 262 0.0 2.0 0.00 0.00 0.00 57 1015.4
20260903210104 92 236 0.0 2.0 0.00 0.00 0.00 59 1015.4
20260903205557 93 205 0.0 2.0 0.00 0.00 0.00 62 1015.4
20260903205057 93 186 0.0 3.0 0.00 0.00 0.00 57 1015.5
20260903204603 93 0 0.0 3.0 0.00 0.00 0.00 60 1015.6
20260903204057 94 166 0.0 3.0 0.00 0.00 0.00 55 1015.5
20260903203600 94 0 0.0 3.0 0.00 0.00 0.00 55 1015.6
20260903203107 94 188 0.0 3.0 0.00 0.00 0.00 59 1015.7
20260903202559 94 0 0.0 3.0 0.00 0.00 0.00 57 1015.9
20260903202057 94 74 0.0 4.0 0.00 0.00 0.00 60 1015.9
20260903201607 94 0 0.0 4.0 0.00 0.00 0.00 55 1016.0
20260903201057 94 53 0.0 1.0 0.00 0.00 0.00 56 1016.1
20260903200557 94 0 0.0 2.0 0.00 0.00 0.00 54 1016.0
20260903200104 94 101 0.0 2.0 0.00 0.00 0.00 56 1016.1
20260903195557 94 0 0.0 1.0 0.00 0.00 0.00 60 1016.0
20260903195057 94 0 0.0 1.0 0.00 0.00 0.00 59 1016.0
20260903194600 93 0 0.0 2.0 0.00 0.00 0.00 59 1016.2
20260903194057 93 0 0.0 2.0 0.00 0.00 0.00 58 1016.2
20260903193556 93 94 0.0 1.0 0.00 0.00 0.00 60 1016.2
20260903193106 91 0 0.0 0.0 0.00 0.00 0.00 65 1016.4
20260903192557 89 0 0.0 0.0 0.00 0.00 0.00 75 1016.4
20260903192059 88 0 0.0 0.0 0.00 0.00 0.00 74 1016.4
20260903191603 88 0 0.0 0.0 0.00 0.00 0.00 75 1016.4
20260903191057 89 0 0.0 0.0 0.00 0.00 0.00 71 1016.6
20260903190556 90 0 0.0 0.0 0.00 0.00 0.00 65 1016.6
20260903190106 91 0 0.0 1.0 0.00 0.00 0.00 64 1016.7
20260903185557 90 0 0.0 1.0 0.00 0.00 0.00 68 1016.7
20260903185057 89 0 0.0 0.0 0.00 0.00 0.00 71 1016.8
20260903184607 90 0 0.0 0.0 0.00 0.00 0.00 65 1016.9
20260903184057 91 0 0.0 2.0 0.00 0.00 0.00 62 1017.0
20260903183556 91 0 0.0 2.0 0.00 0.00 0.00 60 1016.8
20260903183106 93 94 0.0 3.0 0.00 0.00 0.00 57 1017.0
20260903182558 94 0 0.0 4.0 0.00 0.00 0.00 54 1016.8
20260903182057 95 352 1.0 4.0 0.00 0.00 0.00 53 1017.0
20260903181603 95 340 1.0 4.0 0.00 0.00 0.00 55 1017.1
20260903181059 94 9 0.0 4.0 0.00 0.00 0.00 56 1017.2
20260903180557 93 352 0.0 1.0 0.00 0.00 0.00 58 1017.3
20260903180104 93 0 0.0 1.0 0.00 0.00 0.00 56 1017.4
20260903175557 92 0 0.0 2.0 0.00 0.00 0.00 61 1017.4
20260903175058 91 0 0.0 2.0 0.00 0.00 0.00 68 1017.4
20260903174612 92 265 1.0 2.0 0.00 0.00 0.00 62 1017.4
20260903174057 92 352 0.0 2.0 0.00 0.00 0.00 59 1017.5
20260903173556 90 0 0.0 2.0 0.00 0.00 0.00 71 1017.5
20260903173112 91 0 0.0 4.0 0.00 0.00 0.00 64 1017.6
20260903172558 92 0 0.0 4.0 0.00 0.00 0.00 60 1017.6
20260903172058 93 53 0.0 4.0 0.00 0.00 0.00 58 1017.7
20260903171604 92 0 0.0 2.0 0.00 0.00 0.00 61 1017.8
20260903171057 92 165 1.0 5.0 0.00 0.00 0.00 64 1017.8
20260903170558 93 0 0.0 5.0 0.00 0.00 0.00 59 1017.9
20260903170110 93 65 1.0 5.0 0.00 0.00 0.00 61 1018.0
20260903165558 93 0 1.0 4.0 0.00 0.00 0.00 60 1018.0
20260903165057 92 66 1.0 4.0 0.00 0.00 0.00 60 1018.0
20260903164608 92 334 1.0 4.0 0.00 0.00 0.00 60 1018.2
20260903164057 91 52 1.0 4.0 0.00 0.00 0.00 63 1018.2
20260903163554 91 81 0.0 2.0 0.00 0.00 0.00 66 1018.3
20260903163114 90 0 0.0 2.0 0.00 0.00 0.00 66 1018.3
20260903162558 91 144 0.0 2.0 0.00 0.00 0.00 71 1018.3
20260903162058 91 0 0.0 4.0 0.00 0.00 0.00 66 1018.4
20260903161619 90 0 0.0 4.0 0.00 0.00 0.00 66 1018.4
20260903161057 91 51 1.0 3.0 0.00 0.00 0.00 67 1018.4
20260903160557 89 63 0.0 2.0 0.00 0.00 0.00 68 1018.3
20260903160107 88 207 0.0 3.0 0.00 0.00 0.00 71 1018.5
20260903155556 88 204 0.0 3.0 0.00 0.00 0.00 72 1018.5
20260903155100 88 204 0.0 3.0 0.00 0.00 0.00 74 1018.6